�v������,���O�C��(��),���O���x(��),�Ɠx(lx),��O�J�Z���T�[(1:�~�J),����(m/s)
2023-12-01 00:00:00,6.7,72,2,0.0,1
2023-12-01 00:10:00,6.5,71.5,2,0.0,1
2023-12-01 00:20:00,6.6,70,2,0.0,1
2023-12-01 00:30:00,6.9,70.6,2,0.0,1
2023-12-01 00:40:00,6.8,71,2,0.0,0
2023-12-01 00:50:00,6.8,71,2,0.0,0
2023-12-01 01:00:00,6.9,69.9,2,0.0,0
2023-12-01 01:10:00,7.1,66.2,2,0.0,1
2023-12-01 01:20:00,7.7,63.1,0,0.0,2
2023-12-01 01:30:00,7.6,62.6,0,0.0,1
2023-12-01 01:40:00,7.6,62.5,0,0.0,1.5
2023-12-01 01:50:00,7.6,63,2,0.0,2
2023-12-01 02:00:00,7.8,60.8,2,0.0,2
2023-12-01 02:10:00,7.7,59.6,0,0.0,2
2023-12-01 02:20:00,7.8,59.3,0,0.0,1
2023-12-01 02:30:00,8,59.4,0,0.0,1
2023-12-01 02:40:00,7.9,59.9,2,0.0,3
2023-12-01 02:50:00,7.8,57.2,2,0.0,2
2023-12-01 03:00:00,7.9,56.4,0,0.0,1
2023-12-01 03:10:00,7.8,60.2,0,0.0,1.5
2023-12-01 03:20:00,7.2,67.1,2,0.0,0
2023-12-01 03:30:00,6.8,69.2,2,0.0,2
2023-12-01 03:40:00,6.5,71.3,2,0.0,1
2023-12-01 03:50:00,6.5,73.6,0,0.0,3
2023-12-01 04:00:00,6.1,75.5,2,0.0,2
2023-12-01 04:10:00,5.9,75.7,0,0.0,2
2023-12-01 04:20:00,5.8,75.6,2,0.0,3
2023-12-01 04:30:00,6.3,73.5,2,0.0,1.5
2023-12-01 04:40:00,7.2,62.5,2,0.0,1
2023-12-01 04:50:00,7.6,61.2,2,0.0,2
2023-12-01 05:00:00,7.4,60.8,2,0.0,2
2023-12-01 05:10:00,7.7,60.2,2,0.0,2
2023-12-01 05:20:00,7.8,61,2,0.0,1
2023-12-01 05:30:00,7.8,62.5,2,0.0,2
2023-12-01 05:40:00,7.8,62.7,2,0.0,1
2023-12-01 05:50:00,7.7,64.1,2,0.0,2
2023-12-01 06:00:00,7.2,66.8,2,0.0,1
2023-12-01 06:10:00,7.5,66,2,0.0,3
2023-12-01 06:20:00,7.9,65.1,2,0.0,2.5
2023-12-01 06:30:00,7.8,64,2,0.0,4
2023-12-01 06:40:00,7.9,63,4,0.0,2
2023-12-01 06:50:00,7.9,62.3,30,0.0,2
2023-12-01 07:00:00,8,62.2,108,0.0,3
2023-12-01 07:10:00,8,61.6,212,0.0,2
2023-12-01 07:20:00,7.9,61,496,0.0,2
2023-12-01 07:30:00,8,60,999.68,0.0,4
2023-12-01 07:40:00,7.7,59.2,999.68,0.0,4
2023-12-01 07:50:00,7.7,59.6,999.68,0.0,4
2023-12-01 08:00:00,7.8,59.9,999.68,0.0,2
2023-12-01 08:10:00,7.6,61.1,999.68,0.0,1.5
2023-12-01 08:20:00,7.8,60.6,1999.36,0.0,2
2023-12-01 08:30:00,7.6,60.4,1999.36,0.0,3
2023-12-01 08:40:00,7.8,59.4,2997.76,0.0,2
2023-12-01 08:50:00,7.4,59.1,2997.76,0.0,2
2023-12-01 09:00:00,7.7,59.5,3998.72,0.0,2
2023-12-01 09:10:00,7.6,58.5,4999.68,0.0,1
2023-12-01 09:20:00,7.7,57.6,5995.52,0.0,3
2023-12-01 09:30:00,7.7,58.1,7997.44,0.0,2
2023-12-01 09:40:00,7.9,58.1,9999.36,0.0,1
2023-12-01 09:50:00,8,58.8,9999.36,0.0,1
2023-12-01 10:00:00,7.9,58.7,10997.8,0.0,2
2023-12-01 10:10:00,8,58.2,10997.8,0.0,2
2023-12-01 10:20:00,8.1,57.6,11991,0.0,2
2023-12-01 10:30:00,8.2,57.9,13998.1,0.0,2
2023-12-01 10:40:00,8.3,58.6,11991,0.0,1
2023-12-01 10:50:00,7.9,61.9,12994.6,0.0,2
2023-12-01 11:00:00,7.8,63,12994.6,0.0,2
2023-12-01 11:10:00,7.9,64.4,14991.4,0.0,3
2023-12-01 11:20:00,8,65.6,14991.4,0.0,3
2023-12-01 11:30:00,7.9,63.9,13998.1,0.0,4
2023-12-01 11:40:00,7.7,65,9999.36,0.0,3
2023-12-01 11:50:00,7.8,64.8,9999.36,0.0,4
2023-12-01 12:00:00,7.7,64.5,11991,0.0,4.5
2023-12-01 12:10:00,7.8,65.6,12994.6,0.0,2.5
2023-12-01 12:20:00,7.8,65.1,10997.8,0.0,3
2023-12-01 12:30:00,7.8,64.7,10997.8,0.0,2
2023-12-01 12:40:00,7.8,64.1,11991,0.0,2
2023-12-01 12:50:00,7.7,63.6,9999.36,0.0,4
2023-12-01 13:00:00,7.5,64,11991,0.0,5
2023-12-01 13:10:00,7.7,63.8,8995.84,0.0,5
2023-12-01 13:20:00,7.7,64.6,8995.84,0.0,3
2023-12-01 13:30:00,7.9,65.3,13998.1,0.0,2
2023-12-01 13:40:00,7.8,63.1,14991.4,0.0,4
2023-12-01 13:50:00,7.9,63.4,14991.4,0.0,3
2023-12-01 14:00:00,8.1,62.5,10997.8,0.0,2
2023-12-01 14:10:00,8,61.4,9999.36,0.0,2
2023-12-01 14:20:00,7.9,60.8,8995.84,0.0,5
2023-12-01 14:30:00,8.1,61.6,10997.8,0.0,3
2023-12-01 14:40:00,8.2,62.6,8995.84,0.0,2
2023-12-01 14:50:00,8.1,63.1,10997.8,0.0,3
2023-12-01 15:00:00,8.1,63.2,7997.44,0.0,3
2023-12-01 15:10:00,8.3,64.1,23982.1,0.0,1
2023-12-01 15:20:00,8.6,61,10997.8,0.0,3
2023-12-01 15:30:00,8.6,60.9,9999.36,0.0,2
2023-12-01 15:40:00,8.3,62.9,5995.52,0.0,3
2023-12-01 15:50:00,8.3,63.7,2997.76,0.0,2.5
2023-12-01 16:00:00,8.2,64.8,1999.36,0.0,4.5
2023-12-01 16:10:00,7.8,68.9,1999.36,1.0,3
2023-12-01 16:20:00,7.3,73.8,1999.36,1.0,5
2023-12-01 16:30:00,7,75.9,3998.72,1.0,3
2023-12-01 16:40:00,6.6,78.7,1999.36,1.0,2
2023-12-01 16:50:00,6.8,81.4,999.68,1.0,4
2023-12-01 17:00:00,6.8,81.7,472,1.0,2
2023-12-01 17:10:00,6.7,79.2,224,1.0,3.5
2023-12-01 17:20:00,6.9,75.4,62,1.0,1
2023-12-01 17:30:00,7.2,74.8,14,0.0,1
2023-12-01 17:40:00,6.7,72.9,4,1.0,3
2023-12-01 17:50:00,6.9,76.1,2,1.0,3
2023-12-01 18:00:00,7.1,75.1,2,1.0,2
2023-12-01 18:10:00,7,73.1,2,1.0,2
2023-12-01 18:20:00,7.1,71.6,2,1.0,2
2023-12-01 18:30:00,7.3,69.9,2,0.0,3
2023-12-01 18:40:00,7.4,71.1,2,0.0,2
2023-12-01 18:50:00,7.5,72,2,0.0,2
2023-12-01 19:00:00,7.4,70.6,2,0.0,3
2023-12-01 19:10:00,7.6,70,2,0.0,4.5
2023-12-01 19:20:00,7.5,68.8,2,0.0,2
2023-12-01 19:30:00,7.4,69.8,2,0.0,1
2023-12-01 19:40:00,7.8,70.9,2,0.0,4.5
2023-12-01 19:50:00,7.1,77.3,2,0.0,1
2023-12-01 20:00:00,7,76.5,2,0.0,3
2023-12-01 20:10:00,7.6,70.7,2,0.0,2
2023-12-01 20:20:00,7.6,69.1,2,0.0,1
2023-12-01 20:30:00,7.5,70,2,0.0,1
2023-12-01 20:40:00,7.7,69.8,2,0.0,4
2023-12-01 20:50:00,7.9,68.5,2,0.0,1
2023-12-01 21:00:00,8.1,68.2,2,0.0,2
2023-12-01 21:10:00,7.7,67.9,0,0.0,2
2023-12-01 21:20:00,7.8,67.4,2,0.0,5
2023-12-01 21:30:00,7.8,71.8,2,0.0,1.5
2023-12-01 21:40:00,7.1,77.8,2,0.0,2
2023-12-01 21:50:00,7.7,68.9,2,0.0,1
2023-12-01 22:00:00,7.8,66.1,2,0.0,1.5
2023-12-01 22:10:00,7.4,74.3,2,0.0,1
2023-12-01 22:20:00,6.8,78.7,0,0.0,1
2023-12-01 22:30:00,6.6,79.7,0,0.0,1
2023-12-01 22:40:00,6.5,79.3,2,0.0,0
2023-12-01 22:50:00,6.5,78.5,2,0.0,0
2023-12-01 23:00:00,6.6,80.4,2,0.0,1
2023-12-01 23:10:00,6.5,83.1,2,0.0,0
2023-12-01 23:20:00,6.3,84.3,2,0.0,1
2023-12-01 23:30:00,6.3,83.9,0,0.0,1
2023-12-01 23:40:00,6.5,82.9,2,0.0,1
2023-12-01 23:50:00,6.4,81.4,2,0.0,1
2023-12-02 00:00:00,6.5,80.2,2,0.0,1
2023-12-02 00:10:00,6.5,78.6,2,0.0,0
2023-12-02 00:20:00,6.6,77.8,2,0.0,1
2023-12-02 00:30:00,6.6,77.4,2,0.0,1
2023-12-02 00:40:00,6.6,75,2,0.0,0
2023-12-02 00:50:00,7,72.6,2,0.0,0.5
2023-12-02 01:00:00,6.8,73.1,0,0.0,1
2023-12-02 01:10:00,6.4,77.1,0,0.0,1
2023-12-02 01:20:00,6,79,2,0.0,0
2023-12-02 01:30:00,5.9,80.2,2,0.0,1
2023-12-02 01:40:00,5.9,80.2,2,0.0,1
2023-12-02 01:50:00,6.1,79.6,0,0.0,1
2023-12-02 02:00:00,6.2,78.4,0,0.0,1
2023-12-02 02:10:00,6.1,79.9,0,0.0,1
2023-12-02 02:20:00,6,78.6,0,0.0,1
2023-12-02 02:30:00,6.1,77.1,0,0.0,1
2023-12-02 02:40:00,6.1,77.1,2,0.0,1
2023-12-02 02:50:00,6,77,2,0.0,0
2023-12-02 03:00:00,5.9,77.9,0,0.0,1
2023-12-02 03:10:00,5.5,79.7,0,0.0,1
2023-12-02 03:20:00,5.4,79,0,0.0,1
2023-12-02 03:30:00,5.6,79,0,0.0,1
2023-12-02 03:40:00,5.6,80.2,2,0.0,1
2023-12-02 03:50:00,5.5,80.1,0,0.0,1
2023-12-02 04:00:00,5.3,80.1,2,0.0,1
2023-12-02 04:10:00,5.3,80.9,0,0.0,1
2023-12-02 04:20:00,5,81,0,0.0,1
2023-12-02 04:30:00,5.1,81.4,0,0.0,1
2023-12-02 04:40:00,4.8,81.8,2,0.0,1
2023-12-02 04:50:00,4.7,81.7,0,0.0,1
2023-12-02 05:00:00,5,82.7,2,0.0,1
2023-12-02 05:10:00,4.7,82.9,0,0.0,1
2023-12-02 05:20:00,4.7,82.6,2,0.0,0
2023-12-02 05:30:00,4.5,81.5,0,0.0,0
2023-12-02 05:40:00,4.9,80.4,0,0.0,1
2023-12-02 05:50:00,4.7,79.6,2,0.0,1
2023-12-02 06:00:00,4.5,80.1,2,0.0,1
2023-12-02 06:10:00,4.8,79.2,2,0.0,1
2023-12-02 06:20:00,4.7,79.4,2,0.0,1
2023-12-02 06:30:00,4.3,82.9,4,0.0,0
2023-12-02 06:40:00,4.2,83.5,36,0.0,0
2023-12-02 06:50:00,4.1,84.6,240,0.0,0
2023-12-02 07:00:00,3.7,85.3,999.68,0.0,1
2023-12-02 07:10:00,3.5,86,999.68,0.0,1
2023-12-02 07:20:00,3.6,86.5,9999.36,0.0,0.5
2023-12-02 07:30:00,3.6,86.8,14991.4,0.0,1
2023-12-02 07:40:00,3.5,86.9,17991.7,0.0,1
2023-12-02 07:50:00,3.8,87.2,19998.7,0.0,1
2023-12-02 08:00:00,4.1,85.7,21995.5,0.0,1
2023-12-02 08:10:00,4.9,82,22999,0.0,1
2023-12-02 08:20:00,5.6,79.2,25989.1,0.0,1
2023-12-02 08:30:00,5.3,78.1,25989.1,0.0,1
2023-12-02 08:40:00,5.7,76,21483.5,0.0,1
2023-12-02 08:50:00,6,73.5,9999.36,0.0,1
2023-12-02 09:00:00,7.1,63.5,8995.84,0.0,3.5
2023-12-02 09:10:00,7.4,60.7,25497.6,0.0,2.5
2023-12-02 09:20:00,7.9,57.2,24985.6,0.0,3.5
2023-12-02 09:30:00,8.2,56.7,8995.84,0.0,3
2023-12-02 09:40:00,8.3,56.4,7997.44,0.0,3
2023-12-02 09:50:00,8.5,55.9,22999,0.0,3.5
2023-12-02 10:00:00,9,53.5,22999,0.0,4
2023-12-02 10:10:00,8.8,52.6,22999,0.0,4
2023-12-02 10:20:00,9.1,53.1,22999,0.0,3.5
2023-12-02 10:30:00,9.2,53.5,22999,0.0,5
2023-12-02 10:40:00,9.3,52.5,21995.5,0.0,3
2023-12-02 10:50:00,9.7,53.6,21995.5,0.0,3
2023-12-02 11:00:00,9.4,50.9,21995.5,0.0,5
2023-12-02 11:10:00,9.4,51.5,21995.5,0.0,2
2023-12-02 11:20:00,9.9,50,21995.5,0.0,2
2023-12-02 11:30:00,9.8,50,21995.5,0.0,2
2023-12-02 11:40:00,10.2,48,21995.5,0.0,5
2023-12-02 11:50:00,10,49.9,22999,0.0,3
2023-12-02 12:00:00,10.2,49.1,22999,0.0,1.5
2023-12-02 12:10:00,10.4,47.9,22999,0.0,3.5
2023-12-02 12:20:00,10.3,49.5,22999,0.0,3
2023-12-02 12:30:00,10.5,49.5,22999,0.0,3
2023-12-02 12:40:00,10.5,47.4,23982.1,0.0,2.5
2023-12-02 12:50:00,10.8,46.3,23982.1,0.0,4
2023-12-02 13:00:00,10.8,48.2,23982.1,0.0,2
2023-12-02 13:10:00,11,47.5,23982.1,0.0,1.5
2023-12-02 13:20:00,11.3,48,23982.1,0.0,3.5
2023-12-02 13:30:00,11,47.6,23982.1,0.0,2
2023-12-02 13:40:00,11.4,46.7,23982.1,0.0,2
2023-12-02 13:50:00,11.6,45,23982.1,0.0,3
2023-12-02 14:00:00,11.7,45.6,23982.1,0.0,1
2023-12-02 14:10:00,11.7,44.9,23982.1,0.0,1.5
2023-12-02 14:20:00,11.8,43.7,23982.1,0.0,3
2023-12-02 14:30:00,11.9,45.3,22999,0.0,3
2023-12-02 14:40:00,11.8,44.9,22999,0.0,1
2023-12-02 14:50:00,11.8,44.7,21995.5,0.0,2
2023-12-02 15:00:00,11.9,45.6,21995.5,0.0,2
2023-12-02 15:10:00,11.6,46.4,20992,0.0,3
2023-12-02 15:20:00,11.6,47.1,19998.7,0.0,4.5
2023-12-02 15:30:00,11.5,49.3,18995.2,0.0,1.5
2023-12-02 15:40:00,11.6,48.2,17991.7,0.0,2
2023-12-02 15:50:00,11.6,50,16998.4,0.0,3
2023-12-02 16:00:00,11.5,50.4,15994.9,0.0,2
2023-12-02 16:10:00,11.3,50,13998.1,0.0,3
2023-12-02 16:20:00,11.1,50.5,12994.6,0.0,1
2023-12-02 16:30:00,10.8,52.5,10997.8,0.0,2
2023-12-02 16:40:00,10.7,53.7,9999.36,0.0,4
2023-12-02 16:50:00,10.6,54.3,5995.52,0.0,3
2023-12-02 17:00:00,10.3,55.4,999.68,0.0,4
2023-12-02 17:10:00,10.3,58.6,999.68,0.0,1
2023-12-02 17:20:00,9.9,58.5,395.84,0.0,1
2023-12-02 17:30:00,9.9,59.8,40,0.0,1
2023-12-02 17:40:00,9.7,60.8,4,0.0,1
2023-12-02 17:50:00,9.7,60.7,2,0.0,1.5
2023-12-02 18:00:00,9.6,61.9,2,0.0,2
2023-12-02 18:10:00,9.3,62.9,2,0.0,1
2023-12-02 18:20:00,9.5,63.1,2,0.0,3
2023-12-02 18:30:00,9.6,63.9,2,0.0,3.5
2023-12-02 18:40:00,9.4,62.8,2,0.0,3
2023-12-02 18:50:00,9.2,61.7,2,0.0,1
2023-12-02 19:00:00,9.1,62.1,2,0.0,1
2023-12-02 19:10:00,9.2,62.4,0,0.0,1
2023-12-02 19:20:00,9.3,64.9,0,0.0,2
2023-12-02 19:30:00,9.1,64.7,0,0.0,1
2023-12-02 19:40:00,9.1,63.9,0,0.0,1
2023-12-02 19:50:00,8.6,65.2,2,0.0,1
2023-12-02 20:00:00,8.8,66.3,0,0.0,1.5
2023-12-02 20:10:00,7.9,69.8,0,0.0,1
2023-12-02 20:20:00,7.3,73.5,0,0.0,0.5
2023-12-02 20:30:00,6.9,73.4,0,0.0,1
2023-12-02 20:40:00,6.4,73.9,0,0.0,1
2023-12-02 20:50:00,6.2,74.5,0,0.0,1
2023-12-02 21:00:00,6,75.6,0,0.0,1
2023-12-02 21:10:00,5.9,77.1,0,0.0,1
2023-12-02 21:20:00,5.7,78,0,0.0,1.5
2023-12-02 21:30:00,5.3,79,0,0.0,1
2023-12-02 21:40:00,5.5,79.5,0,0.0,1
2023-12-02 21:50:00,5.5,78.9,0,0.0,1
2023-12-02 22:00:00,4.9,80.4,0,0.0,2
2023-12-02 22:10:00,4.8,81.5,0,0.0,0
2023-12-02 22:20:00,4.9,82.3,2,0.0,2
2023-12-02 22:30:00,4.6,83,0,0.0,0
2023-12-02 22:40:00,4.6,82.8,2,0.0,1
2023-12-02 22:50:00,4.6,82.5,0,0.0,1
2023-12-02 23:00:00,4.3,82.4,0,0.0,1
2023-12-02 23:10:00,4.4,82.2,0,0.0,1
2023-12-02 23:20:00,4.4,82.3,0,0.0,1
2023-12-02 23:30:00,4.4,82.6,0,0.0,1
2023-12-02 23:40:00,4.2,84,0,0.0,0.5
2023-12-02 23:50:00,4.2,85.1,0,0.0,2
2023-12-03 00:00:00,3.8,85.2,0,0.0,2
2023-12-03 00:10:00,4,84.5,0,0.0,1.5
2023-12-03 00:20:00,3.9,85.7,0,0.0,1
2023-12-03 00:30:00,3.7,84.9,0,0.0,2
2023-12-03 00:40:00,3.9,84.6,0,0.0,2
2023-12-03 00:50:00,4.1,83.8,0,0.0,2
2023-12-03 01:00:00,4,82.7,0,0.0,1
2023-12-03 01:10:00,4.3,81.8,2,0.0,0.5
2023-12-03 01:20:00,4.1,81.5,2,0.0,1
2023-12-03 01:30:00,3.8,82,0,0.0,2
2023-12-03 01:40:00,3.8,82.6,0,0.0,2
2023-12-03 01:50:00,4.1,82.5,0,0.0,1
2023-12-03 02:00:00,3.9,81.3,2,0.0,1
2023-12-03 02:10:00,3.9,82.8,0,0.0,1
2023-12-03 02:20:00,4.1,80.5,2,0.0,2
2023-12-03 02:30:00,4.2,80.3,2,0.0,1
2023-12-03 02:40:00,4.1,80.3,0,0.0,1.5
2023-12-03 02:50:00,4.1,80,0,0.0,1
2023-12-03 03:00:00,4,80.1,0,0.0,2
2023-12-03 03:10:00,3.9,80.8,0,0.0,2
2023-12-03 03:20:00,3.7,81.6,0,0.0,1
2023-12-03 03:30:00,3.7,81.7,0,0.0,1.5
2023-12-03 03:40:00,4.1,81.7,0,0.0,1
2023-12-03 03:50:00,3.8,82.6,0,0.0,1
2023-12-03 04:00:00,3.8,83,2,0.0,1
2023-12-03 04:10:00,3.9,83,2,0.0,1
2023-12-03 04:20:00,4,82.8,2,0.0,1
2023-12-03 04:30:00,4.1,82.5,0,0.0,1
2023-12-03 04:40:00,4.1,82.7,0,0.0,1
2023-12-03 04:50:00,4,83.1,0,0.0,1
2023-12-03 05:00:00,4.4,82.8,0,0.0,1
2023-12-03 05:10:00,4.1,83.5,0,0.0,1
2023-12-03 05:20:00,4.1,84.5,0,0.0,1
2023-12-03 05:30:00,4.2,85.6,0,0.0,1
2023-12-03 05:40:00,4,86.4,0,0.0,1
2023-12-03 05:50:00,4.4,85.8,0,0.0,1
2023-12-03 06:00:00,4.3,86,0,0.0,3
2023-12-03 06:10:00,4.4,85.4,2,0.0,1
2023-12-03 06:20:00,4.4,85.4,2,0.0,2
2023-12-03 06:30:00,4.4,85.5,4,0.0,2
2023-12-03 06:40:00,4.4,85.4,28,0.0,1
2023-12-03 06:50:00,4.4,85.8,142,0.0,1
2023-12-03 07:00:00,4.5,86.8,499.84,0.0,1
2023-12-03 07:10:00,4.3,87.3,999.68,0.0,1
2023-12-03 07:20:00,4,87.6,1999.36,0.0,1
2023-12-03 07:30:00,4.4,88.5,2997.76,0.0,1
2023-12-03 07:40:00,4.2,88.7,3998.72,0.0,1
2023-12-03 07:50:00,4,89.8,14991.4,0.0,2
2023-12-03 08:00:00,4.7,89.4,6999.04,0.0,2
2023-12-03 08:10:00,4.8,87.9,18995.2,0.0,1
2023-12-03 08:20:00,5.1,86.1,17991.7,0.0,2
2023-12-03 08:30:00,5.4,85.3,17991.7,0.0,1
2023-12-03 08:40:00,5.7,84.7,8995.84,0.0,2
2023-12-03 08:50:00,6.1,83.6,11991,0.0,1
2023-12-03 09:00:00,6.4,83.4,6999.04,0.0,1
2023-12-03 09:10:00,6.6,82.4,7997.44,0.0,1
2023-12-03 09:20:00,7.2,80.3,7997.44,0.0,1
2023-12-03 09:30:00,8.1,78.2,22999,0.0,1
2023-12-03 09:40:00,9.3,74.8,24494.1,0.0,0
2023-12-03 09:50:00,10.2,72.2,25989.1,0.0,2
2023-12-03 10:00:00,11.3,67.7,23982.1,0.0,1
2023-12-03 10:10:00,11.6,64.8,24985.6,0.0,1
2023-12-03 10:20:00,12.1,62.9,12994.6,0.0,1
2023-12-03 10:30:00,12.2,62.1,21995.5,0.0,1
2023-12-03 10:40:00,12.7,60.4,21995.5,0.0,1
2023-12-03 10:50:00,12.7,57.9,13998.1,0.0,3
2023-12-03 11:00:00,12.6,57.9,9497.6,0.0,1.5
2023-12-03 11:10:00,12.5,55,10997.8,0.0,3
2023-12-03 11:20:00,13,53.9,13998.1,0.0,2
2023-12-03 11:30:00,13.2,51.8,13998.1,0.0,1
2023-12-03 11:40:00,13.2,50.5,13998.1,0.0,1
2023-12-03 11:50:00,13.3,49.5,12994.6,0.0,2
2023-12-03 12:00:00,13,53.9,12994.6,0.0,4
2023-12-03 12:10:00,12.8,54.4,12994.6,0.0,3
2023-12-03 12:20:00,13,53.3,13998.1,0.0,2
2023-12-03 12:30:00,13.1,53.9,13998.1,0.0,2.5
2023-12-03 12:40:00,13.2,50.8,13998.1,0.0,2
2023-12-03 12:50:00,13.2,51.1,13998.1,0.0,2.5
2023-12-03 13:00:00,13.6,51,9999.36,0.0,1
2023-12-03 13:10:00,13.1,55.6,12994.6,0.0,1
2023-12-03 13:20:00,13.1,54.5,13998.1,0.0,3.5
2023-12-03 13:30:00,12.8,57.1,11991,0.0,1.5
2023-12-03 13:40:00,12.7,58.5,10997.8,0.0,3.5
2023-12-03 13:50:00,13,58.4,10997.8,0.0,2
2023-12-03 14:00:00,12.8,58.5,13998.1,0.0,2
2023-12-03 14:10:00,13,57.8,11991,0.0,2
2023-12-03 14:20:00,13,58.6,13998.1,0.0,1
2023-12-03 14:30:00,13.2,57.8,12994.6,0.0,2
2023-12-03 14:40:00,13,58.6,11991,0.0,3
2023-12-03 14:50:00,12.8,57.8,10997.8,0.0,1.5
2023-12-03 15:00:00,13.1,56.9,22999,0.0,2
2023-12-03 15:10:00,13.4,59.2,24985.6,0.0,1
2023-12-03 15:20:00,13.6,54.5,11991,0.0,1
2023-12-03 15:30:00,13.5,53.9,9999.36,0.0,2
2023-12-03 15:40:00,13.5,53.2,17991.7,0.0,4
2023-12-03 15:50:00,13.2,59.8,5995.52,0.0,3
2023-12-03 16:00:00,12.8,62.3,11991,0.0,2.5
2023-12-03 16:10:00,12.8,62.6,4999.68,0.0,1
2023-12-03 16:20:00,12.7,62.3,5995.52,0.0,1
2023-12-03 16:30:00,12.6,62.8,7997.44,0.0,1
2023-12-03 16:40:00,12.3,61.8,4999.68,0.0,3
2023-12-03 16:50:00,12.1,63.3,1999.36,0.0,3
2023-12-03 17:00:00,12,64.1,999.68,0.0,1
2023-12-03 17:10:00,12,64.7,459.84,0.0,1
2023-12-03 17:20:00,11.7,64.5,118,0.0,1
2023-12-03 17:30:00,11.5,65.1,12,0.0,3
2023-12-03 17:40:00,11.9,66.1,2,0.0,2
2023-12-03 17:50:00,11.7,65.9,2,0.0,2
2023-12-03 18:00:00,11.5,65.3,2,0.0,0.5
2023-12-03 18:10:00,11.5,66,2,0.0,0
2023-12-03 18:20:00,11.6,65.9,2,0.0,1
2023-12-03 18:30:00,11.4,66.8,2,0.0,1
2023-12-03 18:40:00,11.4,65,2,0.0,1
2023-12-03 18:50:00,11.4,64.9,2,0.0,1.5
2023-12-03 19:00:00,11.3,65.6,2,0.0,1
2023-12-03 19:10:00,10.6,69.7,2,0.0,0
2023-12-03 19:20:00,9.9,72.2,2,0.0,1
2023-12-03 19:30:00,9,74.4,0,0.0,1
2023-12-03 19:40:00,9,74.6,0,0.0,1
2023-12-03 19:50:00,8.7,74.6,2,0.0,1
2023-12-03 20:00:00,8.5,75.5,2,0.0,1.5
2023-12-03 20:10:00,8.3,76.4,0,0.0,0
2023-12-03 20:20:00,8.1,76.6,0,0.0,1
2023-12-03 20:30:00,7.9,77.5,0,0.0,1
2023-12-03 20:40:00,7.6,77.8,2,0.0,1
2023-12-03 20:50:00,7.8,78.2,0,0.0,1
2023-12-03 21:00:00,7.5,78.7,0,0.0,1.5
2023-12-03 21:10:00,7.1,79.6,0,0.0,1
2023-12-03 21:20:00,7,80.1,0,0.0,1
2023-12-03 21:30:00,7.2,80.4,0,0.0,1
2023-12-03 21:40:00,6.9,81,0,0.0,1.5
2023-12-03 21:50:00,7,81.8,0,0.0,2
2023-12-03 22:00:00,6.5,82.3,0,0.0,1
2023-12-03 22:10:00,6.4,83.1,0,0.0,2
2023-12-03 22:20:00,6.6,83.8,0,0.0,0
2023-12-03 22:30:00,6.3,84.2,0,0.0,1
2023-12-03 22:40:00,6.1,84.6,0,0.0,2
2023-12-03 22:50:00,6,85.1,0,0.0,1
2023-12-03 23:00:00,5.8,85.9,0,0.0,1
2023-12-03 23:10:00,5.6,86.8,0,0.0,1
2023-12-03 23:20:00,5.5,87.4,0,0.0,1
2023-12-03 23:30:00,5.5,87.6,0,0.0,0
2023-12-03 23:40:00,5.4,87.9,0,0.0,1
2023-12-03 23:50:00,5.3,88.5,0,0.0,1
2023-12-04 00:00:00,5.2,88.5,0,0.0,1
2023-12-04 00:10:00,5.2,89.4,0,0.0,1
2023-12-04 00:20:00,5,89.6,2,0.0,0.5
2023-12-04 00:30:00,5,89.8,0,0.0,1
2023-12-04 00:40:00,4.9,89.9,0,0.0,1
2023-12-04 00:50:00,4.7,90.1,0,0.0,1
2023-12-04 01:00:00,5,89.8,0,0.0,1
2023-12-04 01:10:00,4.5,90.4,0,0.0,2
2023-12-04 01:20:00,4.6,90.6,0,0.0,1
2023-12-04 01:30:00,4.8,90.6,0,0.0,1
2023-12-04 01:40:00,4.7,91.4,0,0.0,2
2023-12-04 01:50:00,4.7,91.4,0,0.0,2
2023-12-04 02:00:00,4.3,91.4,0,0.0,1
2023-12-04 02:10:00,4.3,92.3,2,0.0,1
2023-12-04 02:20:00,4.2,92.7,0,0.0,1.5
2023-12-04 02:30:00,3.9,93.1,0,0.0,1
2023-12-04 02:40:00,3.9,93.3,0,0.0,1
2023-12-04 02:50:00,4.1,93.5,0,0.0,2
2023-12-04 03:00:00,3.9,93.3,0,0.0,1
2023-12-04 03:10:00,3.8,93.6,0,0.0,1
2023-12-04 03:20:00,3.8,93.8,0,0.0,1
2023-12-04 03:30:00,3.5,94.6,0,0.0,1
2023-12-04 03:40:00,3.6,94.7,0,0.0,1
2023-12-04 03:50:00,3.4,95,0,0.0,1
2023-12-04 04:00:00,3.2,95.2,0,0.0,2
2023-12-04 04:10:00,3.4,95.5,0,0.0,1
2023-12-04 04:20:00,3.2,95.7,0,0.0,1
2023-12-04 04:30:00,2.9,95.8,0,0.0,1
2023-12-04 04:40:00,3,96.2,0,0.0,1
2023-12-04 04:50:00,2.8,96.6,0,0.0,1
2023-12-04 05:00:00,2.8,96.7,0,0.0,1
2023-12-04 05:10:00,2.8,96.6,0,0.0,0.5
2023-12-04 05:20:00,2.9,96.5,0,0.0,1
2023-12-04 05:30:00,2.7,96.5,0,0.0,1
2023-12-04 05:40:00,2.7,96.6,0,0.0,1
2023-12-04 05:50:00,2.7,96.6,0,0.0,1
2023-12-04 06:00:00,2.6,97,0,0.0,2
2023-12-04 06:10:00,2.7,97.2,0,0.0,2
2023-12-04 06:20:00,2.9,96.4,2,0.0,3
2023-12-04 06:30:00,2.9,96.7,4,0.0,3
2023-12-04 06:40:00,2.8,95.9,42,0.0,3
2023-12-04 06:50:00,2.7,95.7,236,0.0,1
2023-12-04 07:00:00,2.5,96,999.68,0.0,1
2023-12-04 07:10:00,2.5,96.2,1999.36,0.0,1
2023-12-04 07:20:00,2.4,96.1,7997.44,0.0,1
2023-12-04 07:30:00,2.9,95.9,11991,0.0,2
2023-12-04 07:40:00,2.8,95.4,15994.9,0.0,2
2023-12-04 07:50:00,2.7,94.5,17991.7,0.0,2
2023-12-04 08:00:00,3.2,92.6,18995.2,0.0,3
2023-12-04 08:10:00,3.3,91.3,18995.2,0.0,2
2023-12-04 08:20:00,3.7,91.5,19998.7,0.0,1
2023-12-04 08:30:00,4,90.2,19998.7,0.0,1
2023-12-04 08:40:00,4.4,89.3,19998.7,0.0,1
2023-12-04 08:50:00,4.7,87.2,22999,0.0,1
2023-12-04 09:00:00,5.4,84.8,20992,0.0,1
2023-12-04 09:10:00,5.8,81.6,21995.5,0.0,1
2023-12-04 09:20:00,6.3,79.7,21995.5,0.0,1.5
2023-12-04 09:30:00,6.8,78.4,21995.5,0.0,1
2023-12-04 09:40:00,7.3,77,21995.5,0.0,2
2023-12-04 09:50:00,7.8,74.9,21995.5,0.0,1
2023-12-04 10:00:00,8.4,72.1,21995.5,0.0,2
2023-12-04 10:10:00,9,70.3,20992,0.0,3
2023-12-04 10:20:00,9.4,68,21995.5,0.0,2
2023-12-04 10:30:00,10.1,65.4,21995.5,0.0,1
2023-12-04 10:40:00,10.8,62.3,21995.5,0.0,1.5
2023-12-04 10:50:00,11.5,57.4,21995.5,0.0,1
2023-12-04 11:00:00,11.6,54.6,21995.5,0.0,1
2023-12-04 11:10:00,12.3,52.2,21995.5,0.0,1
2023-12-04 11:20:00,12.5,51,21995.5,0.0,1
2023-12-04 11:30:00,12.5,51,22999,0.0,3
2023-12-04 11:40:00,12.1,52.3,22999,0.0,3
2023-12-04 11:50:00,12.6,50.6,22999,0.0,1
2023-12-04 12:00:00,12.7,50.8,22999,0.0,2
2023-12-04 12:10:00,12.6,51.3,22999,0.0,3
2023-12-04 12:20:00,12.5,51.5,22999,0.0,2
2023-12-04 12:30:00,12.5,51.3,23982.1,0.0,2
2023-12-04 12:40:00,12.6,51.4,23982.1,0.0,1
2023-12-04 12:50:00,12.9,51.9,23982.1,0.0,1
2023-12-04 13:00:00,12.8,51.4,23982.1,0.0,2.5
2023-12-04 13:10:00,12.9,50.1,23982.1,0.0,2.5
2023-12-04 13:20:00,12.9,49.9,23982.1,0.0,3
2023-12-04 13:30:00,13.1,49.3,23982.1,0.0,3
2023-12-04 13:40:00,13.1,49.6,23982.1,0.0,1.5
2023-12-04 13:50:00,13.1,49.8,23982.1,0.0,2
2023-12-04 14:00:00,13.5,48.8,22999,0.0,1.5
2023-12-04 14:10:00,13.3,47.2,22999,0.0,3
2023-12-04 14:20:00,13.7,48.5,22999,0.0,3
2023-12-04 14:30:00,13.8,47.2,22999,0.0,2
2023-12-04 14:40:00,13.9,48.2,21995.5,0.0,2
2023-12-04 14:50:00,13.7,50.6,20992,0.0,1
2023-12-04 15:00:00,13.8,50,20992,0.0,1
2023-12-04 15:10:00,13.5,50.8,19998.7,0.0,1
2023-12-04 15:20:00,13.7,50.6,18995.2,0.0,2
2023-12-04 15:30:00,13.3,50.8,17991.7,0.0,2
2023-12-04 15:40:00,13.3,51.6,16998.4,0.0,1.5
2023-12-04 15:50:00,13.2,53.1,14991.4,0.0,2
2023-12-04 16:00:00,13,53.4,13998.1,0.0,1.5
2023-12-04 16:10:00,13.1,54.2,12492.8,0.0,1
2023-12-04 16:20:00,12.8,54.3,10997.8,0.0,1
2023-12-04 16:30:00,12.7,55.2,6999.04,0.0,1.5
2023-12-04 16:40:00,12.3,56.1,2997.76,0.0,1.5
2023-12-04 16:50:00,11.9,56.5,999.68,0.0,1
2023-12-04 17:00:00,11.7,57,999.68,0.0,1
2023-12-04 17:10:00,11.8,57.9,265.92,0.0,1
2023-12-04 17:20:00,11.6,59,54,0.0,1
2023-12-04 17:30:00,11.3,60.1,6,0.0,0
2023-12-04 17:40:00,11.1,60.5,2,0.0,0
2023-12-04 17:50:00,11.1,61.3,2,0.0,1
2023-12-04 18:00:00,11.1,63.9,2,0.0,1
2023-12-04 18:10:00,10.9,63.7,2,0.0,1
2023-12-04 18:20:00,10.7,62.8,2,0.0,0
2023-12-04 18:30:00,10.6,63.4,2,0.0,0
2023-12-04 18:40:00,10.7,65.8,2,0.0,1
2023-12-04 18:50:00,10.3,67,2,0.0,0
2023-12-04 19:00:00,10.2,67.3,2,0.0,0
2023-12-04 19:10:00,10,70.2,2,0.0,2
2023-12-04 19:20:00,9.4,73.6,0,0.0,2
2023-12-04 19:30:00,9.1,76,2,0.0,1
2023-12-04 19:40:00,9.1,76.7,2,0.0,1
2023-12-04 19:50:00,9,76.2,2,0.0,1
2023-12-04 20:00:00,9.1,75.8,0,0.0,0
2023-12-04 20:10:00,9,75.7,0,0.0,1
2023-12-04 20:20:00,8.7,76.1,0,0.0,1
2023-12-04 20:30:00,8.6,76.7,0,0.0,1
2023-12-04 20:40:00,8.5,76.8,0,0.0,1
2023-12-04 20:50:00,8.6,77.3,0,0.0,1
2023-12-04 21:00:00,8.4,77.5,2,0.0,1
2023-12-04 21:10:00,8.3,77.9,0,0.0,1
2023-12-04 21:20:00,8.3,77.8,0,0.0,1
2023-12-04 21:30:00,8.5,77.7,0,0.0,0
2023-12-04 21:40:00,8.4,78,0,0.0,1
2023-12-04 21:50:00,8.1,78.4,2,0.0,1
2023-12-04 22:00:00,8,79,0,0.0,1
2023-12-04 22:10:00,7.8,79.5,2,0.0,1
2023-12-04 22:20:00,7.8,80.3,0,0.0,2
2023-12-04 22:30:00,8,80,2,0.0,1
2023-12-04 22:40:00,7.7,80.7,0,0.0,1
2023-12-04 22:50:00,8.1,79.9,0,0.0,1
2023-12-04 23:00:00,7.9,79.4,2,0.0,1
2023-12-04 23:10:00,7.9,79.7,2,0.0,2
2023-12-04 23:20:00,7.9,80,2,0.0,0
2023-12-04 23:30:00,8.1,80,0,0.0,2
2023-12-04 23:40:00,7.8,80.6,0,0.0,1
2023-12-04 23:50:00,7.8,81.2,0,0.0,2
2023-12-05 00:00:00,7.7,82,0,0.0,1
2023-12-05 00:10:00,7.7,82.1,0,0.0,1
2023-12-05 00:20:00,7.7,82.3,0,0.0,2
2023-12-05 00:30:00,8,81.5,2,0.0,1
2023-12-05 00:40:00,7.8,81.7,0,0.0,1
2023-12-05 00:50:00,7.5,81.8,0,0.0,2
2023-12-05 01:00:00,7.7,81.9,0,0.0,1
2023-12-05 01:10:00,7.8,82.2,0,0.0,1
2023-12-05 01:20:00,7.7,82.4,0,0.0,1
2023-12-05 01:30:00,7.7,82.7,0,0.0,1
2023-12-05 01:40:00,7.6,83.4,0,0.0,2
2023-12-05 01:50:00,7.7,82.9,0,0.0,1
2023-12-05 02:00:00,7.7,82.5,2,0.0,1.5
2023-12-05 02:10:00,7.8,83,2,0.0,1
2023-12-05 02:20:00,7.7,82.8,0,0.0,2
2023-12-05 02:30:00,7.7,82.7,2,0.0,1